Home   Weather   Coquitlam   Past weeks
Flag for Canada

Past Weather in Coquitlam, British Columbia, Canada — November 2016

Now
51 °F

Cool.


Feels Like: 51 °F
Forecast: 28 / 49 °F
Wind: 1 mph from Southwest

Location: P. Meadows Coastal Station

Current Time: Nov 17, 2018 at 4:19:41 pm

Latest Report: Nov 17, 2018 at 3:00 pm


Visibility: N/A

Pressure: 30.31 "Hg

Humidity: 52%

Dew Point: 33 °F

Location of CoquitlamLocation

November 2016 Weather in Coquitlam — Graph

°F

High & Low Weather Summary for November 2016

 TemperatureHumidityPressure
High68 °F (Nov 8, 1:00 pm)100% (Nov 1, 6:00 am)30.26 "Hg (Nov 1, 6:00 am)
Low35 °F (Nov 18, 6:00 am)63% (Nov 21, 3:00 pm)29.42 "Hg (Nov 27, 9:00 pm)
Average48 °F89%29.92 "Hg
* Reported Nov 1 12:00 am — Nov 30 11:00 pm, Coquitlam. Weather by CustomWeather, © 2018

Note: Actual official high and low records may vary slightly from our data, if they occured in-between our weather recording intervals... More about our weather records

Advertising

Coquitlam Weather History for November 1, 2016

Scroll right to see more
 ConditionsComfort  
Time TempWeatherWind HumidityBarometerVisibility
12:00 am
Tue, Nov 1
46 °FCool.No wind97%29.81 "HgN/A
1:00 am47 °FCool.1 mph97%29.81 "HgN/A
2:00 am47 °FCool.1 mph97%29.82 "HgN/A
3:00 am47 °FCool.No wind97%29.83 "HgN/A
4:00 am47 °FCool.No wind97%29.83 "HgN/A
5:00 am47 °FCool.No wind97%29.84 "HgN/A
6:00 am46 °FCool.No wind100%29.85 "HgN/A
7:00 am48 °FCool.1 mph97%29.86 "HgN/A
8:00 am48 °FCool.No wind96%29.87 "HgN/A
9:00 am48 °FCool.No wind96%29.89 "HgN/A
10:00 am49 °FCool.No wind95%29.89 "HgN/A
11:00 am52 °FCool.2 mph89%29.90 "HgN/A
12:00 pm54 °FCool.2 mph77%29.90 "HgN/A
1:00 pm54 °FCool.5 mph76%29.91 "HgN/A
2:00 pm54 °FCool.1 mph78%29.93 "HgN/A
3:00 pm53 °FCool.5 mph84%29.93 "HgN/A
4:00 pm51 °FCool.5 mph81%29.92 "HgN/A
5:00 pm50 °FCool.2 mph94%29.93 "HgN/A
6:00 pm49 °FCool.2 mph88%29.95 "HgN/A
7:00 pm49 °FCool.5 mph96%29.95 "HgN/A
8:00 pm49 °FCool.2 mph96%29.96 "HgN/A
9:00 pm49 °FCool.8 mph95%29.97 "HgN/A
10:00 pm49 °FCool.2 mph95%29.98 "HgN/A
11:00 pm50 °FCool.1 mph96%29.98 "HgN/A
Weather by CustomWeather, © 2018

See weather overview